Location: Cerezo de Arriba
(41.2389°N, 3.5585°W)
Time: 03:45:11
(UTC+00:00)

COSMOS 2406 - Pass Details

Date: 19 May 2025
Orbit: 845 x 859 km, 71.0° (Epoch: 23 June)

Event Time Altitude Azimuth Distance (km) Brightness Sun altitude
Exits shadow 23:41:08 32° 263° (W) 1,406 4.3 -28.4°
Maximum altitude 23:42:48 40° 301° (WNW) 1,234 4.2 -28.4°
Drops below altitude 10° 23:48:09 10° 10° (N) 2,486 6.5 -28.5°
Sets 23:50:47 0° 18° (NNE) 3,428 7.4 -28.6°
